EW5209 Weather Reports


time (UTC)temp
C
wind
direction
speed
KPH
gust
KPH
rain 1hr
cm
rain 24hr
cm
rain mn
cm
humidity
%
barometer
mb
20260505224301 29 264 6.4 17.7 0.00 0.00 0.00 70 1004.0
20260505223801 29 191 6.4 16.1 0.00 0.00 0.00 70 1004.1
20260505223301 29 251 8.0 20.9 0.00 0.00 0.00 70 1004.1
20260505222802 28 191 8.0 20.9 0.00 0.00 0.00 70 1003.8
20260505222301 29 109 8.0 24.1 0.00 0.00 0.00 69 1003.7
20260505221758 29 191 8.0 24.1 0.00 0.00 0.00 69 1003.8
20260505221305 29 207 6.4 24.1 0.00 0.00 0.00 68 1003.9
20260505221300 29 224 8.0 24.1 0.00 0.00 0.00 70 1003.8
20260505220258 30 231 6.4 17.7 0.00 0.00 0.00 68 1003.6
20260505215803 30 140 8.0 20.9 0.00 0.00 0.00 68 1003.9
20260505215758 30 207 8.0 20.9 0.00 0.00 0.00 68 1003.7
20260505215257 30 193 8.0 20.9 0.00 0.00 0.00 68 1003.8
20260505214254 30 162 6.4 20.9 0.00 0.00 0.00 67 1003.9
20260505213910 30 92 6.4 19.3 0.00 0.00 0.00 67 1004.1
20260505213758 30 160 6.4 19.3 0.00 0.00 0.00 68 1004.0
20260505213753 30 116 4.8 17.7 0.00 0.00 0.00 68 1004.0
20260505212248 30 206 8.0 22.5 0.00 0.00 0.00 69 1004.2
20260505211749 30 182 8.0 22.5 0.00 0.00 0.00 68 1004.2
20260505211253 29 118 8.0 19.3 0.00 0.00 0.00 67 1004.1
20260505211249 30 234 8.0 20.9 0.00 0.00 0.00 68 1004.0
20260505210908 29 187 9.7 19.3 0.00 0.00 0.00 69 1004.2
20260505205754 29 169 8.0 24.1 0.00 0.00 0.00 68 1004.4
20260505205749 29 242 9.7 19.3 0.00 0.00 0.00 68 1004.3
20260505204748 30 172 8.0 24.1 0.00 0.00 0.00 67 1004.4
20260505204248 29 139 9.7 25.7 0.00 0.00 0.00 69 1004.4
20260505203748 29 200 8.0 25.7 0.00 0.00 0.00 67 1004.5
20260505203248 29 187 8.0 25.7 0.00 0.00 0.00 69 1004.5
20260505202747 29 67 8.0 25.7 0.00 0.00 0.00 69 1004.7
20260505202246 29 236 8.0 17.7 0.00 0.00 0.00 69 1004.7
20260505201747 29 130 8.0 22.5 0.00 0.00 0.00 70 1004.8
20260505201245 29 158 8.0 22.5 0.00 0.00 0.00 69 1004.8
20260505200744 28 224 8.0 22.5 0.00 0.00 0.00 70 1004.8
20260505200246 28 215 9.7 22.5 0.00 0.00 0.00 70 1004.8
20260505195744 28 221 9.7 22.5 0.00 0.00 0.00 71 1004.8
20260505195245 28 148 9.7 20.9 0.00 0.00 0.00 70 1004.8
20260505194744 28 122 9.7 24.1 0.00 0.00 0.00 70 1004.8
20260505194245 28 249 8.0 24.1 0.00 0.00 0.00 70 1004.9
20260505193743 28 156 9.7 22.5 0.00 0.00 0.00 72 1005.0
20260505193244 28 205 9.7 22.5 0.00 0.00 0.00 71 1004.9
20260505192742 28 170 8.0 22.5 0.00 0.00 0.00 71 1004.9
20260505192242 28 211 8.0 19.3 0.00 0.00 0.00 70 1005.1
20260505191748 28 145 11.3 24.1 0.00 0.00 0.00 71 1005.2
20260505191743 28 217 9.7 22.5 0.00 0.00 0.00 72 1005.1
20260505190740 28 235 8.0 24.1 0.00 0.00 0.00 71 1005.2
20260505190242 28 223 9.7 24.1 0.00 0.00 0.00 72 1005.2
20260505185741 27 207 9.7 24.1 0.00 0.00 0.00 71 1005.2
20260505185241 27 203 9.7 24.1 0.00 0.00 0.00 72 1005.3
20260505184745 27 127 8.0 22.5 0.00 0.00 0.00 73 1005.5
20260505184739 28 213 8.0 22.5 0.00 0.00 0.00 71 1005.4
20260505184405 27 226 9.7 29.0 0.00 0.00 0.00 73 1005.6
20260505184359 27 150 9.7 29.0 0.00 0.00 0.00 73 1005.6
20260505182738 27 223 9.7 29.0 0.00 0.00 0.00 73 1005.7
20260505182238 27 203 12.9 29.0 0.00 0.00 0.00 74 1005.7
20260505181740 26 194 12.9 29.0 0.00 0.00 0.00 73 1005.7
20260505181240 27 257 12.9 32.2 0.00 0.00 0.00 73 1005.7
20260505180740 26 170 11.3 32.2 0.00 0.00 0.00 74 1005.6
20260505180247 26 210 12.9 32.2 0.00 0.00 0.00 74 1005.5
20260505180239 26 146 11.3 32.2 0.00 0.00 0.00 75 1005.6
20260505175238 26 202 11.3 29.0 0.00 0.00 0.00 73 1005.4
20260505174743 27 113 9.7 25.7 0.00 0.00 0.00 73 1005.4
20260505174739 27 155 11.3 27.4 0.00 0.00 0.00 73 1005.5
20260505173737 27 226 11.3 32.2 0.00 0.00 0.00 74 1005.6
20260505173238 26 213 12.9 32.2 0.00 0.00 0.00 74 1005.5
20260505172738 26 216 12.9 29.0 0.00 0.00 0.00 75 1005.5
20260505172234 26 158 12.9 29.0 0.00 0.00 0.00 75 1005.6
20260505171735 26 231 12.9 32.2 0.00 0.00 0.00 75 1005.6
20260505171232 26 190 11.3 32.2 0.00 0.00 0.00 76 1005.7
20260505170732 26 222 12.9 32.2 0.00 0.00 0.00 76 1005.6
20260505170237 26 215 14.5 35.4 0.00 0.00 0.00 75 1005.6
20260505170232 26 210 12.9 35.4 0.00 0.00 0.00 75 1005.5
20260505165234 26 214 14.5 35.4 0.00 0.00 0.00 75 1005.5
20260505164733 26 207 14.5 35.4 0.00 0.00 0.00 75 1005.9
20260505164232 26 187 14.5 32.2 0.00 0.00 0.00 76 1005.7
20260505163738 25 154 11.3 29.0 0.00 0.00 0.00 77 1005.7
20260505163732 25 248 12.9 30.6 0.00 0.00 0.00 76 1006.0
20260505163356 25 151 11.3 29.0 0.00 0.00 0.00 77 1005.9
20260505163232 25 116 11.3 30.6 0.00 0.00 0.00 76 1005.9
20260505161730 25 229 12.9 29.0 0.00 0.00 0.00 77 1005.7
20260505161231 25 183 12.9 29.0 0.00 0.00 0.00 78 1005.7
20260505160730 25 190 12.9 29.0 0.00 0.00 0.00 78 1005.6
20260505160231 25 176 11.3 29.0 0.00 0.00 0.00 78 1005.7
20260505153228 25 246 9.7 24.1 0.00 0.00 0.00 78 1005.9
20260505152726 24 148 8.0 29.0 0.00 0.00 0.00 78 1006.0
20260505152226 24 269 8.0 29.0 0.00 0.00 0.00 79 1006.1
20260505151726 24 150 11.3 29.0 0.00 0.00 0.00 80 1006.0
20260505151227 24 72 12.9 29.0 0.00 0.00 0.00 80 1005.7
20260505150726 24 148 11.3 30.6 0.00 0.00 0.00 80 1005.7
20260505150227 24 197 12.9 30.6 0.00 0.00 0.00 80 1005.5
20260505130220 22 256 8.0 22.5 0.00 0.00 0.00 83 1005.1
20260505124220 22 212 6.4 17.7 0.00 0.00 0.00 83 1005.0
20260505123718 -17 0.0 0.0 0.00 0.00 0.00 1005.0
20260505123219 -17 0.0 0.0 0.00 0.00 0.00 1004.9
20260505122711 -17 0.0 0.0 0.00 0.00 0.00 1004.7
20260505122122 -17 0.0 0.0 0.00 0.00 0.00 1004.8
20260505122024 -17 0.0 0.0 0.00 0.00 0.00 1004.8
20260505121628 -17 0.0 0.0 0.00 0.00 0.00 1004.9
20260505121127 -17 0.0 0.0 0.00 0.00 0.00 1004.8
20260505120021 -17 0.0 0.0 0.00 0.00 0.00 1004.8
20260505115519 -17 0.0 0.0 0.00 0.00 0.00 1004.6
20260505115020 -17 0.0 0.0 0.00 0.00 0.00 1004.7
20260505115016 -17 0.0 0.0 0.00 0.00 0.00 1004.7
20260505114622 -17 0.0 0.0 0.00 0.00 0.00 1004.8
20260505113516 -17 0.0 0.0 0.00 0.00 0.00 1004.7
20260505113014 -17 0.0 0.0 0.00 0.00 0.00 1004.7
20260505112923 -17 0.0 0.0 0.00 0.00 0.00 1004.5
20260505112527 -17 0.0 0.0 0.00 0.00 0.00 1004.7
20260505112024 -17 0.0 0.0 0.00 0.00 0.00 1004.6
20260505110914 -17 0.0 0.0 0.00 0.00 0.00 1004.6
20260505110316 -17 0.0 0.0 0.00 0.00 0.00 1004.6
20260505102120 21 125 6.4 17.7 0.00 0.00 0.00 83 1004.6
20260505101619 21 170 6.4 17.7 0.00 0.00 0.00 83 1004.4
20260505101124 21 217 8.0 19.3 0.00 0.00 0.00 83 1004.7
20260505101120 21 171 8.0 17.7 0.00 0.00 0.00 83 1004.5
20260505100120 21 142 8.0 25.7 0.00 0.00 0.00 83 1004.9
20260505095617 21 140 8.0 25.7 0.00 0.00 0.00 83 1004.9
20260505095119 21 273 8.0 25.7 0.00 0.00 0.00 83 1004.7
20260505094617 21 205 9.7 25.7 0.00 0.00 0.00 83 1004.9
20260505094117 21 101 9.7 22.5 0.00 0.00 0.00 83 1004.9
20260505093618 21 120 8.0 22.5 0.00 0.00 0.00 83 1004.9
20260505093117 21 231 6.4 30.6 0.00 0.00 0.00 83 1004.8
20260505092617 21 243 8.0 30.6 0.00 0.00 0.00 83 1004.8
20260505092123 21 217 8.0 30.6 0.00 0.00 0.00 83 1004.8
20260505092119 21 171 9.7 30.6 0.00 0.00 0.00 83 1004.9
20260505091118 21 226 8.0 20.9 0.00 0.00 0.00 83 1004.7
20260505090615 21 142 8.0 20.9 0.00 0.00 0.00 83 1004.8
20260505090120 21 122 9.7 20.9 0.00 0.00 0.00 83 1004.8
20260505090116 21 176 8.0 20.9 0.00 0.00 0.00 83 1004.8
20260505085116 21 137 9.7 20.9 0.00 0.00 0.00 83 1004.7
20260505084616 21 103 9.7 24.1 0.00 0.00 0.00 83 1004.8
20260505084115 21 227 9.7 24.1 0.00 0.00 0.00 83 1004.8
20260505083615 21 135 11.3 24.1 0.00 0.00 0.00 83 1004.9
20260505083115 21 140 11.3 24.1 0.00 0.00 0.00 83 1004.8
20260505082615 21 160 9.7 24.1 0.00 0.00 0.00 83 1004.7
20260505082238 21 159 8.0 22.5 0.00 0.00 0.00 83 1005.1
20260505082120 21 226 9.7 30.6 0.00 0.00 0.00 83 1005.1
20260505082116 21 198 9.7 30.6 0.00 0.00 0.00 83 1004.9
20260505081245 21 145 8.0 20.9 0.00 0.00 0.00 83 1005.4
20260505081234 21 264 8.0 20.9 0.00 0.00 0.00 83 1005.2
20260505080615 21 194 8.0 20.9 0.00 0.00 0.00 83 1005.1
20260505075114 21 231 8.0 19.3 0.00 0.00 0.00 83 1005.3
20260505074615 21 199 9.7 24.1 0.00 0.00 0.00 83 1005.4
20260505074115 21 114 9.7 24.1 0.00 0.00 0.00 83 1005.5
20260505073612 21 195 8.0 24.1 0.00 0.00 0.00 83 1005.5
20260505073114 21 204 8.0 25.7 0.00 0.00 0.00 83 1005.7
20260505072614 21 219 8.0 25.7 0.00 0.00 0.00 83 1005.7
20260505072113 21 136 9.7 25.7 0.00 0.00 0.00 83 1005.9
20260505071619 21 212 8.0 22.5 0.00 0.00 0.00 83 1006.0
20260505071613 21 143 9.7 25.7 0.00 0.00 0.00 83 1006.0
20260505070613 21 119 8.0 22.5 0.00 0.00 0.00 83 1006.0
20260505070112 21 218 6.4 20.9 0.00 0.00 0.00 83 1005.9
20260505065613 21 203 8.0 19.3 0.00 0.00 0.00 83 1006.2
20260505065112 21 184 8.0 25.7 0.00 0.00 0.00 83 1006.2
20260505064612 21 161 8.0 25.7 0.00 0.00 0.00 83 1006.1
20260505064112 21 141 8.0 20.9 0.00 0.00 0.00 83 1006.3
20260505063614 21 248 8.0 19.3 0.00 0.00 0.00 82 1006.3
20260505063609 21 142 6.4 19.3 0.00 0.00 0.00 83 1006.3
20260505062610 22 209 6.4 19.3 0.00 0.00 0.00 82 1006.4
20260505062108 22 221 6.4 19.3 0.00 0.00 0.00 82 1006.5
20260505061610 22 107 6.4 17.7 0.00 0.00 0.00 82 1006.5
20260505061109 22 101 6.4 17.7 0.00 0.00 0.00 82 1006.4
20260505060608 22 134 6.4 17.7 0.00 0.00 0.00 82 1006.4
20260505060109 22 91 6.4 19.3 0.00 0.00 0.00 82 1006.4
20260505055609 22 143 6.4 19.3 0.00 0.00 0.00 82 1006.4
20260505055110 22 71 6.4 20.9 0.00 0.00 0.00 82 1006.5
20260505054610 22 169 4.8 20.9 0.00 0.00 0.00 82 1006.5
20260505054110 22 184 4.8 16.1 0.00 0.00 0.00 81 1006.6
20260505053610 22 139 6.4 19.3 0.00 0.00 0.00 81 1006.7
20260505053109 22 134 6.4 19.3 0.00 0.00 0.00 81 1006.7
20260505052609 22 254 6.4 19.3 0.00 0.00 0.00 81 1006.7
20260505052109 22 250 6.4 19.3 0.00 0.00 0.00 81 1006.6
20260505051610 22 198 6.4 17.7 0.00 0.00 0.00 81 1006.6
20260505051109 22 143 6.4 16.1 0.00 0.00 0.00 80 1006.6
20260505050610 22 233 6.4 16.1 0.00 0.00 0.00 80 1006.5
20260505050109 22 192 6.4 16.1 0.00 0.00 0.00 80 1006.5
20260505041613 22 203 4.8 16.1 0.00 0.00 0.00 78 1007.0
20260505041606 22 105 4.8 16.1 0.00 0.00 0.00 78 1006.9
20260505041107 22 166 4.8 16.1 0.00 0.00 0.00 78 1007.0
20260505040731 22 160 6.4 16.1 0.00 0.00 0.00 77 1006.9
20260505035607 22 140 6.4 14.5 0.00 0.00 0.00 77 1006.6
20260505035103 22 128 6.4 14.5 0.00 0.00 0.00 77 1006.9
20260505034604 22 206 6.4 14.5 0.00 0.00 0.00 77 1006.8
20260505034105 22 206 6.4 17.7 0.00 0.00 0.00 76 1006.6
20260505033603 22 203 6.4 17.7 0.00 0.00 0.00 76 1006.6
20260505033109 23 108 6.4 17.7 0.00 0.00 0.00 76 1006.7
20260505032723 23 163 4.8 19.3 0.00 0.00 0.00 75 1006.9
20260505032609 23 166 4.8 17.7 0.00 0.00 0.00 75 1006.9
20260505032603 23 101 6.4 17.7 0.00 0.00 0.00 76 1006.7
20260505031103 23 121 6.4 19.3 0.00 0.00 0.00 75 1006.9
20260505030604 23 130 6.4 19.3 0.00 0.00 0.00 75 1006.9
20260505030104 23 181 8.0 19.3 0.00 0.00 0.00 75 1006.9
20260505025603 23 225 8.0 19.3 0.00 0.00 0.00 75 1006.7
20260505025104 23 120 6.4 19.3 0.00 0.00 0.00 74 1006.6
20260505024601 23 119 4.8 19.3 0.00 0.00 0.00 74 1006.7
20260505024103 23 152 4.8 20.9 0.00 0.00 0.00 74 1006.6
20260505023601 23 191 4.8 20.9 0.00 0.00 0.00 74 1006.5
20260505023100 23 107 6.4 20.9 0.00 0.00 0.00 74 1006.5
20260505022601 23 195 6.4 20.9 0.00 0.00 0.00 74 1006.4
20260505022101 23 134 6.4 16.1 0.00 0.00 0.00 74 1006.5
20260505021603 23 115 6.4 16.1 0.00 0.00 0.00 73 1006.4
20260505021102 23 150 6.4 14.5 0.00 0.00 0.00 73 1006.4
20260505020600 23 126 6.4 14.5 0.00 0.00 0.00 73 1006.4
20260505020104 23 147 4.8 17.7 0.00 0.00 0.00 72 1006.4
20260505020100 23 119 6.4 17.7 0.00 0.00 0.00 73 1006.4
20260505015717 23 154 4.8 12.9 0.00 0.00 0.00 72 1006.5
20260505014555 23 118 6.4 12.9 0.00 0.00 0.00 72 1006.4
20260505014056 23 108 4.8 12.9 0.00 0.00 0.00 72 1006.3
20260505013556 23 121 3.2 17.7 0.00 0.00 0.00 71 1006.3
20260505013055 23 129 3.2 17.7 0.00 0.00 0.00 71 1006.4
20260505012600 24 195 6.4 17.7 0.00 0.00 0.00 70 1006.3
20260505012554 24 188 4.8 17.7 0.00 0.00 0.00 70 1006.4
20260505011552 24 76 4.8 14.5 0.00 0.00 0.00 70 1006.4
20260505011051 24 112 4.8 17.7 0.00 0.00 0.00 69 1006.4
20260505010556 24 124 4.8 14.5 0.00 0.00 0.00 69 1006.4
20260505010551 24 169 4.8 17.7 0.00 0.00 0.00 69 1006.4
20260505005551 24 134 4.8 22.5 0.00 0.00 0.00 68 1006.5
20260505005051 25 75 4.8 22.5 0.00 0.00 0.00 68 1006.6
20260505004556 25 76 4.8 22.5 0.00 0.00 0.00 67 1006.6
20260505004550 25 127 4.8 22.5 0.00 0.00 0.00 68 1006.6
20260505003551 25 141 4.8 19.3 0.00 0.00 0.00 66 1006.6
20260505003053 25 107 4.8 19.3 0.00 0.00 0.00 66 1006.7
20260505002549 25 240 6.4 19.3 0.00 0.00 0.00 65 1006.7
20260505002050 25 154 6.4 19.3 0.00 0.00 0.00 65 1006.6
20260505001548 25 162 6.4 19.3 0.00 0.00 0.00 64 1006.8
20260505001048 25 77 8.0 22.5 0.00 0.00 0.00 65 1006.8
20260505000548 25 127 9.7 22.5 0.00 0.00 0.00 64 1006.7
20260505000048 25 127 8.0 22.5 0.00 0.00 0.00 64 1006.7
20260504235546 25 101 8.0 22.5 0.00 0.00 0.00 64 1006.8
20260504235046 26 70 6.4 22.5 0.00 0.00 0.00 63 1006.8
20260504234549 26 164 6.4 19.3 0.00 0.00 0.00 64 1006.9
20260504234046 26 123 6.4 24.1 0.00 0.00 0.00 63 1007.1
20260504233548 26 148 8.0 24.1 0.00 0.00 0.00 63 1007.0
20260504233048 26 133 9.7 24.1 0.00 0.00 0.00 62 1007.0
20260504232548 26 237 8.0 24.1 0.00 0.00 0.00 61 1007.0
20260504232047 26 118 8.0 24.1 0.00 0.00 0.00 62 1006.9
20260504231548 26 134 9.7 27.4 0.00 0.00 0.00 61 1007.0
20260504231047 26 128 9.7 27.4 0.00 0.00 0.00 61 1007.2
20260504230547 26 193 9.7 35.4 0.00 0.00 0.00 60 1007.3
20260504230054 26 205 11.3 25.7 0.00 0.00 0.00 61 1007.3
20260504230048 26 201 9.7 35.4 0.00 0.00 0.00 60 1007.3
20260504225052 26 217 11.3 25.7 0.00 0.00 0.00 59 1007.4
20260504225048 26 146 12.9 25.7 0.00 0.00 0.00 60 1007.5